Flag for South Africa Weather past 2 weeks in Bloemfontein, South Africa

Now
52 °F

Clear.


Feels Like: 52 °F
Forecast: 42 / 74 °F
Wind: No wind

Location: Bloemfontein Airport

Current Time: May 27, 2015 at 8:29:40 PM

Latest Report: May 27, 2015 at 8:00 PM


Visibility: 10 mi

Pressure: 30.24 "Hg

Humidity: 44%

Dew point: 30 °F

Location of BloemfonteinLocation

Historic Weather in Bloemfontein — Graph

°F

Bloemfontein temperature yesterday

Maximum temperature yesterday: 75 °F (at 3:00 PM)
Minimum temperature yesterday: 37 °F (at 5:00 AM)
Average temperature yesterday: 55 °F

Past Weeks' High & Low Weather Summary

 TemperatureHumidityPressure
High79 °F (May 18, 2:00 PM)93% (May 14, 6:00 AM)30.48 "Hg (May 14, 6:00 AM)
Low36 °F (May 13, 7:00 AM)10% (May 15, 2:00 PM)30.09 "Hg (May 13, 3:00 PM)
Average56 °F48%30.26 "Hg
* Reported May 12 7:00 PM — May 27 7:00 PM, Bloemfontein, Weather by CustomWeather, © 2015

Note: Actual official high and low records may vary slightly from our data, if they occured in-between our weather recording intervals... More about our weather records

Advertising

Bloemfontein weather history for previous 24 hours

 ConditionsComfort  
Time TempWeatherWind HumidityBarometerVisibility
7:00 PM
Wed, May 27
55 °FClear.2 mph38%30.21 "Hg10 mi
6:00 PM66 °FClear.3 mph24%30.21 "Hg10 mi
5:00 PM72 °FMild.3 mph19%30.21 "HgN/A
4:00 PM75 °FPassing clouds.12 mph18%30.18 "HgN/A
2:00 PM75 °FPassing clouds.13 mph19%30.21 "HgN/A
11:00 AM68 °FSunny.2 mph23%30.30 "Hg10 mi
10:00 AM61 °FSunny.1 mph34%30.27 "Hg10 mi
9:00 AM52 °FSunny.2 mph44%30.27 "Hg10 mi
8:49 AM52 °FSunny.2 mph44%30.27 "Hg10 mi
7:00 AM36 °FSunny.2 mph75%30.24 "Hg10 mi
6:00 AM39 °FSunny.1 mph75%30.24 "Hg10 mi
5:00 AM37 °FClear.No wind75%30.24 "Hg10 mi
4:00 AM41 °FQuite cool.6 mph70%30.21 "Hg4 mi
3:00 AM39 °FChilly.3 mph75%30.21 "Hg5 mi
2:00 AM43 °FQuite cool.No wind66%30.24 "HgN/A
1:00 AM48 °FCool.3 mph54%30.21 "HgN/A
12:00 AM48 °FCool.2 mph54%30.21 "Hg4 mi
11:00 PM
Tue, May 26
45 °FQuite cool.No wind57%30.24 "HgN/A
10:00 PM45 °FQuite cool.5 mph53%30.21 "Hg5 mi
9:00 PM50 °FCool.3 mph47%30.21 "Hg5 mi
8:00 PM50 °FClear.No wind40%30.21 "Hg10 mi
Weather by CustomWeather, © 2015

See weather overviewHow to use our weather pages